Location: North Mitre
(40.7833°S, 175.4667°E)
Time: 03:36:54
(UTC+00:00)

Cosmos 2181 Rocket - Pass Details

Date: 04 August 2024
Orbit: 952 x 1013 km, 82.9° (Epoch: 07 September)

Event Time Altitude Azimuth Distance (km) Brightness Sun altitude
Rises 18:33:40 0° 190° (S) 3,739 6.8 -9.2°
Reaches altitude 10° 18:36:14 10° 191° (S) 2,774 6.1 -8.8°
Maximum altitude 18:42:35 76° 275° (W) 1,015 4.0 -7.6°
Drops below altitude 10° 18:48:46 10° 359° (N) 2,700 6.5 -6.5°
Sets 18:51:14 0° 360° (N) 3,632 7.2 -6.0°
